Location: Rometta
(44.2000°N, 10.0500°E)
Time: 22:03:40
(UTC+00:00)

NOSS 3-1 (C) - Pass Details

Date: 20 January 2021
Orbit: 723 x 1485 km, 63.3° (Epoch: 03 March)

Event Time Altitude Azimuth Distance (km) Brightness Sun altitude
Rises 19:24:03 0° 321° (NW) 3,972 7.2 -33.8°
Reaches altitude 10° 19:26:35 10° 319° (NW) 3,110 6.6 -34.3°
Maximum altitude 19:34:11 72° 237° (WSW) 1,394 4.2 -35.6°
Enters shadow 19:34:45 69° 210° (SSW) 1,419 4.2 -35.7°
